Time,TemperatureF,DewpointF,PressureIn,WindDirection,WindDirectionDegrees,WindSpeedMPH,WindSpeedGustMPH,Humidity,HourlyPrecipIn,Conditions,Clouds,dailyrainin,SoftwareType,DateUTC
2013-07-26 00:00:00,67.3,63.6,29.39,NNE,27,0.0,0.0,88,0.00,CLR,,0.00,WeatherDisplay:10.37,2013-07-26 04:00:00,
2013-07-26 00:01:00,67.3,63.6,29.39,NNE,27,0.0,0.0,88,0.00,CLR,,0.00,WeatherDisplay:10.37,2013-07-26 04:01:00,
2013-07-26 00:06:00,67.1,63.1,29.39,NNE,27,0.0,0.0,87,0.00,CLR,,0.00,WeatherDisplay:10.37,2013-07-26 04:06:00,
2013-07-26 00:11:00,67.1,63.4,29.39,NNE,27,0.0,0.0,88,0.00,CLR,,0.00,WeatherDisplay:10.37,2013-07-26 04:11:00,
2013-07-26 00:16:00,67.1,63.4,29.39,NNE,27,0.0,0.0,88,0.00,CLR,,0.00,WeatherDisplay:10.37,2013-07-26 04:16:00,
2013-07-26 00:21:00,67.1,63.4,29.39,NNE,27,0.0,0.0,88,0.00,CLR,,0.00,WeatherDisplay:10.37,2013-07-26 04:21:00,
2013-07-26 00:27:00,66.9,63.2,29.39,NNE,27,0.0,0.0,88,0.00,CLR,,0.00,WeatherDisplay:10.37,2013-07-26 04:27:00,
2013-07-26 00:32:00,66.8,63.1,29.39,NNE,27,0.0,0.0,88,0.00,CLR,,0.00,WeatherDisplay:10.37,2013-07-26 04:32:00,
2013-07-26 00:37:00,66.8,63.1,29.39,NNE,27,0.0,0.0,88,0.00,CLR,,0.00,WeatherDisplay:10.37,2013-07-26 04:37:00,
2013-07-26 00:42:00,66.6,62.9,29.39,NNE,27,0.0,0.0,88,0.00,CLR,,0.00,WeatherDisplay:10.37,2013-07-26 04:42:00,
2013-07-26 00:47:00,66.6,62.9,29.39,NNE,27,0.0,0.0,88,0.00,CLR,,0.00,WeatherDisplay:10.37,2013-07-26 04:47:00,
2013-07-26 00:52:00,66.4,62.4,29.39,NNE,27,0.0,0.0,87,0.00,CLR,,0.00,WeatherDisplay:10.37,2013-07-26 04:52:00,
2013-07-26 00:57:00,66.4,62.4,29.39,NNE,27,0.0,0.0,87,0.00,CLR,,0.00,WeatherDisplay:10.37,2013-07-26 04:57:00,
2013-07-26 01:02:00,66.4,62.4,29.39,NNE,27,0.0,0.0,87,0.00,CLR,,0.00,WeatherDisplay:10.37,2013-07-26 05:02:00,
2013-07-26 01:07:00,66.4,62.7,29.39,NNE,27,0.0,0.0,88,0.00,CLR,,0.00,WeatherDisplay:10.37,2013-07-26 05:07:00,
2013-07-26 01:12:00,66.4,62.7,29.39,NNE,27,1.1,0.0,88,0.00,CLR,,0.00,WeatherDisplay:10.37,2013-07-26 05:12:00,
2013-07-26 01:17:00,66.4,62.7,29.39,NNE,27,0.0,0.0,88,0.00,CLR,,0.00,WeatherDisplay:10.37,2013-07-26 05:17:00,
2013-07-26 01:22:00,66.4,63.1,29.39,NNE,27,0.0,0.0,89,0.00,CLR,,0.00,WeatherDisplay:10.37,2013-07-26 05:22:00,
2013-07-26 01:27:00,66.4,63.1,29.39,NNE,27,0.0,0.0,89,0.00,CLR,,0.00,WeatherDisplay:10.37,2013-07-26 05:27:00,
2013-07-26 01:32:00,66.3,63.0,29.39,NNE,27,0.0,0.0,89,0.00,CLR,,0.00,WeatherDisplay:10.37,2013-07-26 05:32:00,
2013-07-26 01:37:00,66.1,62.8,29.39,NNE,27,0.0,0.0,89,0.00,CLR,,0.00,WeatherDisplay:10.37,2013-07-26 05:37:00,
2013-07-26 01:42:00,66.1,62.8,29.39,NNE,28,0.0,0.1,89,0.00,CLR,,0.00,WeatherDisplay:10.37,2013-07-26 05:42:00,
2013-07-26 01:47:00,66.0,62.7,29.39,NNE,28,0.0,0.0,89,0.00,CLR,,0.00,WeatherDisplay:10.37,2013-07-26 05:47:00,
2013-07-26 01:52:00,65.8,62.5,29.38,NNE,28,0.0,0.0,89,0.00,CLR,,0.00,WeatherDisplay:10.37,2013-07-26 05:52:00,
2013-07-26 01:57:00,65.6,62.3,29.38,NNE,28,0.0,0.0,89,0.00,CLR,,0.00,WeatherDisplay:10.37,2013-07-26 05:57:00,
2013-07-26 02:02:00,65.6,62.3,29.38,NNE,28,0.0,0.0,89,0.00,CLR,,0.00,WeatherDisplay:10.37,2013-07-26 06:02:00,
2013-07-26 02:07:00,65.5,62.5,29.38,NNE,28,0.0,0.0,90,0.00,CLR,,0.00,WeatherDisplay:10.37,2013-07-26 06:07:00,
2013-07-26 02:12:00,65.3,62.3,29.38,NNE,28,0.0,0.0,90,0.00,CLR,,0.00,WeatherDisplay:10.37,2013-07-26 06:12:00,
2013-07-26 02:17:00,65.2,62.2,29.38,NNE,28,0.0,0.0,90,0.00,CLR,,0.00,WeatherDisplay:10.37,2013-07-26 06:17:00,
2013-07-26 02:22:00,65.0,62.0,29.38,NNE,28,0.0,0.0,90,0.00,CLR,,0.00,WeatherDisplay:10.37,2013-07-26 06:22:00,
2013-07-26 02:27:00,65.0,62.0,29.38,NNE,28,0.0,0.0,90,0.00,CLR,,0.00,WeatherDisplay:10.37,2013-07-26 06:27:00,
2013-07-26 02:32:00,64.8,61.8,29.38,NNE,28,0.0,0.0,90,0.00,CLR,,0.00,WeatherDisplay:10.37,2013-07-26 06:32:00,
2013-07-26 02:37:00,64.7,61.7,29.38,NNE,28,0.0,0.0,90,0.00,CLR,,0.00,WeatherDisplay:10.37,2013-07-26 06:37:00,
2013-07-26 02:42:00,64.5,61.8,29.38,NNE,28,0.0,0.0,91,0.00,CLR,,0.00,WeatherDisplay:10.37,2013-07-26 06:42:00,
2013-07-26 02:47:00,64.5,61.8,29.38,NNE,28,0.0,0.0,91,0.00,CLR,,0.00,WeatherDisplay:10.37,2013-07-26 06:47:00,
2013-07-26 02:52:00,64.5,62.1,29.38,NNE,28,0.0,0.0,92,0.00,CLR,,0.00,WeatherDisplay:10.37,2013-07-26 06:52:00,
2013-07-26 02:57:00,64.5,62.1,29.38,NNE,28,0.0,0.0,92,0.00,CLR,,0.00,WeatherDisplay:10.37,2013-07-26 06:57:00,
2013-07-26 03:02:00,64.3,61.9,29.38,NNE,28,0.0,0.0,92,0.00,CLR,,0.00,WeatherDisplay:10.37,2013-07-26 07:02:00,
2013-07-26 03:07:00,64.3,61.9,29.38,NNE,28,0.0,0.0,92,0.00,CLR,,0.00,WeatherDisplay:10.37,2013-07-26 07:07:00,
2013-07-26 03:12:00,64.2,61.8,29.38,NNE,28,0.0,0.0,92,0.00,CLR,,0.00,WeatherDisplay:10.37,2013-07-26 07:12:00,
2013-07-26 03:17:00,64.2,61.8,29.38,NNE,28,0.0,0.0,92,0.00,CLR,,0.00,WeatherDisplay:10.37,2013-07-26 07:17:00,
2013-07-26 03:22:00,64.2,61.8,29.38,NNE,28,0.0,0.0,92,0.00,CLR,,0.00,WeatherDisplay:10.37,2013-07-26 07:22:00,
2013-07-26 03:27:00,64.0,61.6,29.38,NNE,28,0.0,0.0,92,0.00,CLR,,0.00,WeatherDisplay:10.37,2013-07-26 07:27:00,
2013-07-26 03:32:00,64.2,62.1,29.38,NNE,28,0.0,0.0,93,0.00,CLR,,0.00,WeatherDisplay:10.37,2013-07-26 07:32:00,
2013-07-26 03:37:00,64.2,62.1,29.38,NNE,28,0.0,0.0,93,0.00,CLR,,0.00,WeatherDisplay:10.37,2013-07-26 07:37:00,
2013-07-26 03:42:00,64.0,61.9,29.38,NNE,28,0.0,0.0,93,0.00,CLR,,0.00,WeatherDisplay:10.37,2013-07-26 07:42:00,
2013-07-26 03:47:00,64.0,61.9,29.38,NNE,28,3.5,3.5,93,0.00,CLR,,0.00,WeatherDisplay:10.37,2013-07-26 07:47:00,
2013-07-26 03:52:00,64.0,61.9,29.38,NNE,28,0.0,0.0,93,0.00,CLR,,0.00,WeatherDisplay:10.37,2013-07-26 07:52:00,
2013-07-26 03:57:00,64.0,61.9,29.38,NNE,28,0.0,0.0,93,0.00,CLR,,0.00,WeatherDisplay:10.37,2013-07-26 07:57:00,
2013-07-26 04:02:00,63.9,61.8,29.38,NNE,28,0.0,0.0,93,0.00,CLR,,0.00,WeatherDisplay:10.37,2013-07-26 08:02:00,
2013-07-26 04:07:00,63.9,61.8,29.38,NNE,28,0.0,0.0,93,0.00,CLR,,0.00,WeatherDisplay:10.37,2013-07-26 08:07:00,
2013-07-26 04:12:00,63.7,61.6,29.38,NNE,28,0.0,0.0,93,0.00,CLR,,0.00,WeatherDisplay:10.37,2013-07-26 08:12:00,
2013-07-26 04:17:00,63.7,61.6,29.38,NNE,28,0.0,0.0,93,0.00,CLR,,0.00,WeatherDisplay:10.37,2013-07-26 08:17:00,
2013-07-26 04:22:00,63.5,61.4,29.39,NNE,28,0.0,0.0,93,0.00,CLR,,0.00,WeatherDisplay:10.37,2013-07-26 08:22:00,
2013-07-26 04:27:00,63.5,61.4,29.39,NNE,28,0.0,0.0,93,0.00,CLR,,0.00,WeatherDisplay:10.37,2013-07-26 08:27:00,
2013-07-26 04:32:00,63.4,61.6,29.39,NNE,28,0.0,0.0,94,0.00,CLR,,0.00,WeatherDisplay:10.37,2013-07-26 08:32:00,
2013-07-26 04:37:00,63.4,61.6,29.40,NNE,28,0.0,0.0,94,0.00,CLR,,0.00,WeatherDisplay:10.37,2013-07-26 08:37:00,
2013-07-26 04:42:00,63.4,61.6,29.40,NNE,28,0.0,0.0,94,0.00,CLR,,0.00,WeatherDisplay:10.37,2013-07-26 08:42:00,
2013-07-26 04:47:00,63.2,61.4,29.40,NNE,28,0.0,0.0,94,0.00,CLR,,0.00,WeatherDisplay:10.37,2013-07-26 08:47:00,
2013-07-26 04:52:00,63.2,61.4,29.39,NNE,28,0.0,0.0,94,0.00,CLR,,0.00,WeatherDisplay:10.37,2013-07-26 08:52:00,
2013-07-26 04:57:00,63.2,61.4,29.39,NNE,28,0.0,0.0,94,0.00,CLR,,0.00,WeatherDisplay:10.37,2013-07-26 08:57:00,
2013-07-26 05:02:00,63.1,61.3,29.39,NNE,28,0.0,0.0,94,0.00,CLR,,0.00,WeatherDisplay:10.37,2013-07-26 09:02:00,
2013-07-26 05:07:00,63.1,61.3,29.40,NNE,28,0.0,0.0,94,0.00,CLR,,0.00,WeatherDisplay:10.37,2013-07-26 09:07:00,
2013-07-26 05:12:00,63.1,61.3,29.40,NNE,28,0.0,0.0,94,0.00,CLR,,0.00,WeatherDisplay:10.37,2013-07-26 09:12:00,
2013-07-26 05:17:00,63.1,61.3,29.40,NNE,28,0.0,0.0,94,0.00,CLR,,0.00,WeatherDisplay:10.37,2013-07-26 09:17:00,
2013-07-26 05:22:00,62.9,61.1,29.40,NNE,28,0.0,0.0,94,0.00,CLR,,0.00,WeatherDisplay:10.37,2013-07-26 09:22:00,
2013-07-26 05:27:00,62.9,60.8,29.40,NNE,28,0.0,0.0,93,0.00,CLR,,0.00,WeatherDisplay:10.37,2013-07-26 09:27:00,
2013-07-26 05:32:00,62.9,60.8,29.40,NNE,28,0.0,0.0,93,0.00,CLR,,0.00,WeatherDisplay:10.37,2013-07-26 09:32:00,
2013-07-26 05:37:00,63.1,61.0,29.41,NNE,28,0.0,0.0,93,0.00,CLR,,0.00,WeatherDisplay:10.37,2013-07-26 09:37:00,
2013-07-26 05:42:00,63.1,61.0,29.41,NNE,28,0.0,0.0,93,0.00,CLR,,0.00,WeatherDisplay:10.37,2013-07-26 09:42:00,
2013-07-26 05:47:00,63.1,61.0,29.41,NNE,28,0.0,0.0,93,0.00,CLR,,0.00,WeatherDisplay:10.37,2013-07-26 09:47:00,
2013-07-26 05:52:00,63.1,60.7,29.42,NNE,28,0.0,0.0,92,0.00,CLR,,0.00,WeatherDisplay:10.37,2013-07-26 09:52:00,
2013-07-26 05:57:00,63.1,60.7,29.42,NNE,28,0.0,0.0,92,0.00,CLR,,0.00,WeatherDisplay:10.37,2013-07-26 09:57:00,
2013-07-26 06:02:00,63.1,61.0,29.42,NNE,28,0.0,0.0,93,0.00,CLR,,0.00,WeatherDisplay:10.37,2013-07-26 10:02:00,
2013-07-26 06:07:00,63.1,61.0,29.42,NNE,28,0.0,0.0,93,0.00,CLR,,0.00,WeatherDisplay:10.37,2013-07-26 10:07:00,
2013-07-26 06:12:00,62.9,60.8,29.42,NNE,28,0.0,0.0,93,0.00,CLR,,0.00,WeatherDisplay:10.37,2013-07-26 10:12:00,
2013-07-26 06:17:00,62.9,60.8,29.42,NNE,28,0.0,0.0,93,0.00,CLR,,0.00,WeatherDisplay:10.37,2013-07-26 10:17:00,
2013-07-26 06:22:00,62.7,60.6,29.43,NNE,28,0.0,0.0,93,0.00,CLR,,0.00,WeatherDisplay:10.37,2013-07-26 10:22:00,
2013-07-26 06:27:00,62.7,60.6,29.43,NNE,28,0.0,0.0,93,0.00,CLR,,0.00,WeatherDisplay:10.37,2013-07-26 10:27:00,
2013-07-26 06:32:00,62.7,60.9,29.43,NNE,28,0.0,0.0,94,0.00,CLR,,0.00,WeatherDisplay:10.37,2013-07-26 10:32:00,
2013-07-26 06:37:00,62.7,60.9,29.43,NNE,28,0.0,0.0,94,0.00,CLR,,0.00,WeatherDisplay:10.37,2013-07-26 10:37:00,
2013-07-26 06:42:00,62.9,61.1,29.43,NNW,344,0.0,0.0,94,0.00,CLR,,0.00,WeatherDisplay:10.37,2013-07-26 10:42:00,
2013-07-26 06:47:00,62.9,61.4,29.43,NNW,344,0.0,0.0,95,0.00,CLR,,0.00,WeatherDisplay:10.37,2013-07-26 10:47:00,
2013-07-26 06:52:00,63.1,61.6,29.43,NNW,344,0.0,0.0,95,0.00,CLR,,0.00,WeatherDisplay:10.37,2013-07-26 10:52:00,
2013-07-26 06:57:00,63.2,61.7,29.43,NNW,344,0.0,0.0,95,0.00,CLR,,0.00,WeatherDisplay:10.37,2013-07-26 10:57:00,
2013-07-26 07:02:00,63.4,61.9,29.43,NNW,344,0.0,0.0,95,0.00,CLR,,0.00,WeatherDisplay:10.37,2013-07-26 11:02:00,
2013-07-26 07:07:00,63.9,62.7,29.43,NNW,344,0.0,0.0,96,0.00,CLR,,0.00,WeatherDisplay:10.37,2013-07-26 11:07:00,
2013-07-26 07:12:00,64.3,63.1,29.43,NNW,344,0.0,0.0,96,0.00,CLR,,0.00,WeatherDisplay:10.37,2013-07-26 11:12:00,
2013-07-26 07:17:00,64.5,63.3,29.43,NNW,344,0.0,0.0,96,0.00,CLR,,0.00,WeatherDisplay:10.37,2013-07-26 11:17:00,
2013-07-26 07:22:00,64.5,63.0,29.43,NNW,344,0.0,0.0,95,0.00,CLR,,0.00,WeatherDisplay:10.37,2013-07-26 11:22:00,
2013-07-26 07:27:00,64.7,63.2,29.43,NNW,344,0.0,0.0,95,0.00,CLR,,0.00,WeatherDisplay:10.37,2013-07-26 11:27:00,
2013-07-26 07:32:00,64.8,63.3,29.43,NNW,344,0.0,0.0,95,0.00,CLR,,0.00,WeatherDisplay:10.37,2013-07-26 11:32:00,
2013-07-26 07:37:00,65.0,63.5,29.43,NNW,344,0.0,0.0,95,0.00,CLR,,0.00,WeatherDisplay:10.37,2013-07-26 11:37:00,
2013-07-26 07:42:00,65.2,63.7,29.43,NNW,344,0.0,0.0,95,0.00,CLR,,0.00,WeatherDisplay:10.37,2013-07-26 11:42:00,
2013-07-26 07:47:00,65.3,63.8,29.43,NNW,344,0.0,0.0,95,0.00,CLR,,0.00,WeatherDisplay:10.37,2013-07-26 11:47:00,
2013-07-26 07:52:00,65.3,63.5,29.43,NNW,344,0.0,0.0,94,0.00,CLR,,0.00,WeatherDisplay:10.37,2013-07-26 11:52:00,
2013-07-26 07:57:00,65.5,63.7,29.43,NNW,344,0.0,0.0,94,0.00,CLR,,0.00,WeatherDisplay:10.37,2013-07-26 11:57:00,
2013-07-26 08:02:00,65.8,63.4,29.43,NNW,344,0.0,0.0,92,0.00,CLR,,0.00,WeatherDisplay:10.37,2013-07-26 12:02:00,
2013-07-26 08:07:00,66.3,63.0,29.44,NNW,344,0.0,0.0,89,0.00,CLR,,0.00,WeatherDisplay:10.37,2013-07-26 12:07:00,
2013-07-26 08:12:00,66.8,62.5,29.44,ESE,120,2.0,2.0,86,0.00,CLR,,0.00,WeatherDisplay:10.37,2013-07-26 12:12:00,
2013-07-26 08:17:00,67.3,62.0,29.44,ESE,120,2.3,2.3,83,0.00,CLR,,0.00,WeatherDisplay:10.37,2013-07-26 12:17:00,
2013-07-26 08:22:00,67.8,61.8,29.44,ESE,120,0.0,0.0,81,0.00,CLR,,0.00,WeatherDisplay:10.37,2013-07-26 12:22:00,
2013-07-26 08:27:00,68.3,61.2,29.44,ESE,120,0.0,0.0,78,0.00,CLR,,0.00,WeatherDisplay:10.37,2013-07-26 12:27:00,
2013-07-26 08:32:00,68.6,61.1,29.44,ESE,120,0.0,0.0,77,0.00,CLR,,0.00,WeatherDisplay:10.37,2013-07-26 12:32:00,
2013-07-26 08:37:00,68.9,61.4,29.45,ESE,120,0.0,0.0,77,0.00,CLR,,0.00,WeatherDisplay:10.37,2013-07-26 12:37:00,
2013-07-26 08:42:00,69.3,61.0,29.45,ESE,120,0.0,0.0,75,0.00,CLR,,0.00,WeatherDisplay:10.37,2013-07-26 12:42:00,
2013-07-26 08:47:00,69.6,61.7,29.45,NNE,27,1.0,1.0,76,0.00,CLR,,0.00,WeatherDisplay:10.37,2013-07-26 12:47:00,
2013-07-26 08:52:00,70.1,62.6,29.46,NNE,27,0.0,0.0,77,0.00,CLR,,0.00,WeatherDisplay:10.37,2013-07-26 12:52:00,
2013-07-26 08:57:00,70.4,61.3,29.46,ENE,72,1.1,1.1,73,0.00,CLR,,0.00,WeatherDisplay:10.37,2013-07-26 12:57:00,
2013-07-26 09:03:00,70.6,60.3,29.46,ENE,72,0.0,0.0,70,0.00,CLR,,0.00,WeatherDisplay:10.37,2013-07-26 13:03:00,
2013-07-26 09:08:00,70.9,61.0,29.46,ENE,58,0.0,0.8,71,0.00,CLR,,0.00,WeatherDisplay:10.37,2013-07-26 13:08:00,
2013-07-26 09:13:00,71.1,61.6,29.46,NNE,31,0.0,0.0,72,0.00,CLR,,0.00,WeatherDisplay:10.37,2013-07-26 13:13:00,
2013-07-26 09:18:00,71.3,60.6,29.46,NNE,14,3.5,0.0,69,0.00,CLR,,0.00,WeatherDisplay:10.37,2013-07-26 13:18:00,
2013-07-26 09:23:00,72.0,61.7,29.46,SE,126,3.5,3.5,70,0.00,CLR,,0.00,WeatherDisplay:10.37,2013-07-26 13:23:00,
2013-07-26 09:28:00,72.3,61.1,29.46,SE,127,0.0,0.0,68,0.00,CLR,,0.00,WeatherDisplay:10.37,2013-07-26 13:28:00,
2013-07-26 09:33:00,73.0,60.1,29.46,ESE,113,1.1,0.0,64,0.00,CLR,,0.00,WeatherDisplay:10.37,2013-07-26 13:33:00,
2013-07-26 09:38:00,73.3,59.0,29.46,ESE,113,1.1,1.1,61,0.00,CLR,,0.00,WeatherDisplay:10.37,2013-07-26 13:38:00,
2013-07-26 09:43:00,73.7,59.9,29.46,NE,37,2.3,0.0,62,0.00,CLR,,0.00,WeatherDisplay:10.37,2013-07-26 13:43:00,
2013-07-26 09:48:00,74.0,59.7,29.46,East,89,0.0,0.0,61,0.00,CLR,,0.00,WeatherDisplay:10.37,2013-07-26 13:48:00,
2013-07-26 09:53:00,74.2,58.9,29.46,East,100,1.0,1.0,59,0.00,CLR,,0.00,WeatherDisplay:10.37,2013-07-26 13:53:00,
2013-07-26 09:58:00,74.6,59.8,29.46,SE,141,3.5,0.0,60,0.00,CLR,,0.00,WeatherDisplay:10.37,2013-07-26 13:58:00,
2013-07-26 10:03:00,74.9,59.6,29.46,ESE,123,0.0,0.0,59,0.00,CLR,,0.00,WeatherDisplay:10.37,2013-07-26 14:03:00,
2013-07-26 10:08:00,75.1,59.8,29.46,ESE,123,0.0,0.0,59,0.00,CLR,,0.00,WeatherDisplay:10.37,2013-07-26 14:08:00,
2013-07-26 10:13:00,75.4,60.1,29.46,SE,127,0.0,0.1,59,0.00,CLR,,0.00,WeatherDisplay:10.37,2013-07-26 14:13:00,
2013-07-26 10:18:00,76.0,59.7,29.46,ESE,117,1.1,0.0,57,0.00,CLR,,0.00,WeatherDisplay:10.37,2013-07-26 14:18:00,
2013-07-26 10:23:00,76.1,60.2,29.47,ESE,117,0.0,0.0,58,0.00,CLR,,0.00,WeatherDisplay:10.37,2013-07-26 14:23:00,
2013-07-26 10:28:00,76.5,60.1,29.47,ESE,117,0.0,0.0,57,0.00,CLR,,0.00,WeatherDisplay:10.37,2013-07-26 14:28:00,
2013-07-26 10:33:00,76.8,60.4,29.47,NE,48,3.5,3.5,57,0.00,CLR,,0.00,WeatherDisplay:10.37,2013-07-26 14:33:00,
2013-07-26 10:38:00,77.2,60.8,29.47,NE,48,0.0,0.0,57,0.00,CLR,,0.00,WeatherDisplay:10.37,2013-07-26 14:38:00,
2013-07-26 10:43:00,77.4,61.0,29.47,NE,49,1.1,0.0,57,0.00,CLR,,0.00,WeatherDisplay:10.37,2013-07-26 14:43:00,
2013-07-26 10:48:00,77.0,60.6,29.47,NE,44,0.0,0.0,57,0.00,CLR,,0.00,WeatherDisplay:10.37,2013-07-26 14:48:00,
2013-07-26 10:53:00,76.8,60.9,29.47,ENE,62,0.0,0.0,58,0.00,CLR,,0.00,WeatherDisplay:10.37,2013-07-26 14:53:00,
2013-07-26 10:58:00,77.2,60.8,29.47,ENE,62,0.0,1.1,57,0.00,CLR,,0.00,WeatherDisplay:10.37,2013-07-26 14:58:00,
2013-07-26 11:03:00,77.6,62.1,29.47,North,3,1.1,1.8,59,0.00,CLR,,0.00,WeatherDisplay:10.37,2013-07-26 15:03:00,
2013-07-26 11:08:00,77.6,59.6,29.46,ENE,73,3.0,3.0,54,0.00,CLR,,0.00,WeatherDisplay:10.37,2013-07-26 15:08:00,
2013-07-26 11:13:00,77.6,61.2,29.46,NE,35,0.0,0.1,57,0.00,CLR,,0.00,WeatherDisplay:10.37,2013-07-26 15:13:00,
2013-07-26 11:18:00,77.9,60.4,29.46,SE,141,1.1,0.0,55,0.00,CLR,,0.00,WeatherDisplay:10.37,2013-07-26 15:18:00,
2013-07-26 11:23:00,78.3,60.3,29.46,SE,134,0.0,0.0,54,0.00,CLR,,0.00,WeatherDisplay:10.37,2013-07-26 15:23:00,
2013-07-26 11:28:00,78.1,57.9,29.46,SE,133,0.0,0.0,50,0.00,CLR,,0.00,WeatherDisplay:10.37,2013-07-26 15:28:00,
2013-07-26 11:33:00,78.5,58.3,29.46,NE,54,0.0,0.0,50,0.00,CLR,,0.00,WeatherDisplay:10.37,2013-07-26 15:33:00,
2013-07-26 11:38:00,78.6,58.4,29.45,ENE,62,2.3,0.0,50,0.00,CLR,,0.00,WeatherDisplay:10.37,2013-07-26 15:38:00,
2013-07-26 11:43:00,78.8,58.6,29.45,NNE,13,3.5,3.5,50,0.00,CLR,,0.00,WeatherDisplay:10.37,2013-07-26 15:43:00,
2013-07-26 11:48:00,79.4,60.8,29.45,North,11,6.9,6.9,53,0.00,CLR,,0.00,WeatherDisplay:10.37,2013-07-26 15:48:00,
2013-07-26 11:53:00,79.6,61.5,29.46,North,7,0.0,0.0,54,0.00,CLR,,0.00,WeatherDisplay:10.37,2013-07-26 15:53:00,
2013-07-26 11:58:00,79.6,60.4,29.46,North,3,0.0,0.0,52,0.00,CLR,,0.00,WeatherDisplay:10.37,2013-07-26 15:58:00,
2013-07-26 12:03:00,79.4,59.7,29.46,North,0,0.0,1.7,51,0.00,CLR,,0.00,WeatherDisplay:10.37,2013-07-26 16:03:00,
2013-07-26 12:08:00,79.2,61.1,29.45,NE,34,0.0,1.1,54,0.00,CLR,,0.00,WeatherDisplay:10.37,2013-07-26 16:08:00,
2013-07-26 12:13:00,79.4,59.7,29.45,NNE,18,0.0,0.0,51,0.00,CLR,,0.00,WeatherDisplay:10.37,2013-07-26 16:13:00,
2013-07-26 12:18:00,80.1,60.9,29.45,NNE,18,0.0,0.0,52,0.00,CLR,,0.00,WeatherDisplay:10.37,2013-07-26 16:18:00,
2013-07-26 12:23:00,80.5,61.3,29.45,NNE,21,0.0,0.0,52,0.00,CLR,,0.00,WeatherDisplay:10.37,2013-07-26 16:23:00,
2013-07-26 12:28:00,80.7,61.4,29.45,SE,138,0.0,0.0,52,0.00,CLR,,0.00,WeatherDisplay:10.37,2013-07-26 16:28:00,
2013-07-26 12:33:00,81.2,58.5,29.45,SSE,162,0.0,0.0,46,0.00,CLR,,0.00,WeatherDisplay:10.37,2013-07-26 16:33:00,
2013-07-26 12:38:00,81.1,59.6,29.45,NE,40,0.0,0.0,48,0.00,CLR,,0.00,WeatherDisplay:10.37,2013-07-26 16:38:00,
2013-07-26 12:43:00,81.1,59.6,29.45,NE,34,0.0,0.0,48,0.00,CLR,,0.00,WeatherDisplay:10.37,2013-07-26 16:43:00,
2013-07-26 12:48:00,81.1,60.1,29.45,NE,37,0.0,0.0,49,0.00,CLR,,0.00,WeatherDisplay:10.37,2013-07-26 16:48:00,
2013-07-26 12:53:00,81.1,60.1,29.45,NE,37,0.0,0.0,49,0.00,CLR,,0.00,WeatherDisplay:10.37,2013-07-26 16:53:00,
2013-07-26 12:58:00,81.1,60.1,29.45,SW,236,0.0,0.0,49,0.00,CLR,,0.00,WeatherDisplay:10.37,2013-07-26 16:58:00,
2013-07-26 13:03:00,81.6,60.6,29.45,North,357,2.3,2.3,49,0.00,CLR,,0.00,WeatherDisplay:10.37,2013-07-26 17:03:00,
2013-07-26 13:08:00,81.6,60.6,29.45,North,357,0.0,0.0,49,0.00,CLR,,0.00,WeatherDisplay:10.37,2013-07-26 17:08:00,
2013-07-26 13:13:00,81.1,59.0,29.45,SE,136,0.0,0.0,47,0.00,CLR,,0.00,WeatherDisplay:10.37,2013-07-26 17:13:00,
2013-07-26 13:18:00,81.1,59.0,29.45,ESE,123,0.0,0.0,47,0.00,CLR,,0.00,WeatherDisplay:10.37,2013-07-26 17:18:00,
2013-07-26 13:23:00,81.1,60.1,29.45,North,0,0.0,0.0,49,0.00,CLR,,0.00,WeatherDisplay:10.37,2013-07-26 17:23:00,
2013-07-26 13:28:00,81.1,59.0,29.45,North,0,0.0,0.0,47,0.00,CLR,,0.00,WeatherDisplay:10.37,2013-07-26 17:28:00,
2013-07-26 13:33:00,81.2,60.8,29.45,WSW,250,0.0,0.0,50,0.00,CLR,,0.00,WeatherDisplay:10.37,2013-07-26 17:33:00,
2013-07-26 13:38:00,81.4,61.0,29.45,NNW,330,0.0,0.0,50,0.00,CLR,,0.00,WeatherDisplay:10.37,2013-07-26 17:38:00,
2013-07-26 13:43:00,81.6,61.2,29.45,NNW,339,2.3,2.3,50,0.00,CLR,,0.00,WeatherDisplay:10.37,2013-07-26 17:43:00,
2013-07-26 13:48:00,81.6,60.6,29.45,NNW,339,1.1,1.1,49,0.00,CLR,,0.00,WeatherDisplay:10.37,2013-07-26 17:48:00,
2013-07-26 13:53:00,81.8,61.3,29.45,SW,226,0.0,0.0,50,0.00,CLR,,0.00,WeatherDisplay:10.37,2013-07-26 17:53:00,
2013-07-26 13:58:00,82.0,61.5,29.45,SW,227,3.5,4.0,50,0.00,CLR,,0.00,WeatherDisplay:10.37,2013-07-26 17:58:00,
2013-07-26 14:03:00,81.6,60.6,29.45,West,277,0.0,0.0,49,0.00,CLR,,0.00,WeatherDisplay:10.37,2013-07-26 18:03:00,
2013-07-26 14:08:00,81.4,60.4,29.44,West,277,0.0,0.0,49,0.00,CLR,,0.00,WeatherDisplay:10.37,2013-07-26 18:08:00,
2013-07-26 14:13:00,81.6,61.7,29.44,WSW,250,3.5,3.5,51,0.00,CLR,,0.00,WeatherDisplay:10.37,2013-07-26 18:13:00,
2013-07-26 14:18:00,81.6,61.7,29.44,SW,226,0.0,0.0,51,0.00,CLR,,0.00,WeatherDisplay:10.37,2013-07-26 18:18:00,
2013-07-26 14:23:00,81.1,61.3,29.44,SW,226,0.0,0.0,51,0.00,CLR,,0.00,WeatherDisplay:10.37,2013-07-26 18:23:00,
2013-07-26 14:28:00,81.4,61.5,29.44,WNW,301,0.0,0.0,51,0.00,CLR,,0.00,WeatherDisplay:10.37,2013-07-26 18:28:00,
2013-07-26 14:33:00,81.8,61.9,29.44,NNW,347,0.0,0.0,51,0.00,CLR,,0.00,WeatherDisplay:10.37,2013-07-26 18:33:00,
2013-07-26 14:38:00,82.2,62.3,29.44,NNW,347,0.0,0.0,51,0.00,CLR,,0.00,WeatherDisplay:10.37,2013-07-26 18:38:00,
2013-07-26 14:43:00,83.4,64.5,29.44,WNW,292,1.0,0.0,53,0.00,CLR,,0.00,WeatherDisplay:10.37,2013-07-26 18:43:00,
2013-07-26 14:48:00,83.6,62.4,29.44,WSW,237,4.6,4.6,49,0.00,CLR,,0.00,WeatherDisplay:10.37,2013-07-26 18:48:00,
2013-07-26 14:53:00,83.0,61.9,29.44,WSW,241,0.0,0.0,49,0.00,CLR,,0.00,WeatherDisplay:10.37,2013-07-26 18:53:00,
2013-07-26 14:58:00,83.0,61.9,29.44,WSW,256,0.0,0.0,49,0.00,CLR,,0.00,WeatherDisplay:10.37,2013-07-26 18:58:00,
2013-07-26 15:03:00,83.0,61.9,29.44,WSW,251,4.6,5.0,49,0.00,CLR,,0.00,WeatherDisplay:10.37,2013-07-26 19:03:00,
2013-07-26 15:08:00,83.0,61.9,29.43,West,278,0.0,0.0,49,0.00,CLR,,0.00,WeatherDisplay:10.37,2013-07-26 19:08:00,
2013-07-26 15:13:00,82.8,61.7,29.43,NNW,343,3.5,3.5,49,0.00,CLR,,0.00,WeatherDisplay:10.37,2013-07-26 19:13:00,
2013-07-26 15:18:00,83.2,62.6,29.43,NNW,343,0.0,0.0,50,0.00,CLR,,0.00,WeatherDisplay:10.37,2013-07-26 19:18:00,
2013-07-26 15:23:00,83.4,62.8,29.43,West,271,1.1,1.1,50,0.00,CLR,,0.00,WeatherDisplay:10.37,2013-07-26 19:23:00,
2013-07-26 15:28:00,83.2,62.6,29.43,West,270,0.0,0.0,50,0.00,CLR,,0.00,WeatherDisplay:10.37,2013-07-26 19:28:00,
2013-07-26 15:33:00,83.2,62.6,29.43,West,270,0.0,0.0,50,0.00,CLR,,0.00,WeatherDisplay:10.37,2013-07-26 19:33:00,
2013-07-26 15:38:00,83.4,62.8,29.43,West,278,1.1,1.1,50,0.00,CLR,,0.00,WeatherDisplay:10.37,2013-07-26 19:38:00,
2013-07-26 15:43:00,83.4,62.8,29.43,West,278,1.1,1.1,50,0.00,CLR,,0.00,WeatherDisplay:10.37,2013-07-26 19:43:00,
2013-07-26 15:48:00,83.4,62.8,29.43,West,278,1.1,1.1,50,0.00,CLR,,0.00,WeatherDisplay:10.37,2013-07-26 19:48:00,
2013-07-26 15:53:00,83.4,62.8,29.42,North,0,0.0,0.0,50,0.00,CLR,,0.00,WeatherDisplay:10.37,2013-07-26 19:53:00,
2013-07-26 15:58:00,83.4,62.8,29.42,North,0,0.0,0.0,50,0.00,CLR,,0.00,WeatherDisplay:10.37,2013-07-26 19:58:00,
2013-07-26 16:03:00,83.4,62.8,29.42,North,0,0.0,0.0,50,0.00,CLR,,0.00,WeatherDisplay:10.37,2013-07-26 20:03:00,
2013-07-26 16:08:00,83.4,62.8,29.42,North,0,0.0,0.0,50,0.00,CLR,,0.00,WeatherDisplay:10.37,2013-07-26 20:08:00,
2013-07-26 16:13:00,83.4,62.8,29.42,North,0,0.0,0.0,50,0.00,CLR,,0.00,WeatherDisplay:10.37,2013-07-26 20:13:00,
2013-07-26 16:18:00,83.4,62.8,29.42,North,0,0.0,0.0,50,0.00,CLR,,0.00,WeatherDisplay:10.37,2013-07-26 20:18:00,
2013-07-26 16:23:00,83.4,62.8,29.42,North,0,0.0,0.0,50,0.00,CLR,,0.00,WeatherDisplay:10.37,2013-07-26 20:23:00,
2013-07-26 16:28:00,83.4,62.8,29.42,North,0,0.0,0.0,50,0.00,CLR,,0.00,WeatherDisplay:10.37,2013-07-26 20:28:00,
2013-07-26 16:33:00,83.4,62.8,29.42,North,0,0.0,0.0,50,0.00,CLR,,0.00,WeatherDisplay:10.37,2013-07-26 20:33:00,
2013-07-26 16:38:00,83.4,62.8,29.41,North,0,0.0,0.0,50,0.00,CLR,,0.00,WeatherDisplay:10.37,2013-07-26 20:38:00,
2013-07-26 16:43:00,83.4,62.8,29.41,North,0,0.0,0.0,50,0.00,CLR,,0.00,WeatherDisplay:10.37,2013-07-26 20:43:00,
2013-07-26 16:48:00,83.4,62.8,29.41,North,0,0.0,0.0,50,0.00,CLR,,0.00,WeatherDisplay:10.37,2013-07-26 20:48:00,
2013-07-26 16:53:00,83.4,62.8,29.41,North,0,0.0,0.0,50,0.00,CLR,,0.00,WeatherDisplay:10.37,2013-07-26 20:53:00,
2013-07-26 16:58:00,83.4,62.8,29.41,North,0,0.0,0.0,50,0.00,CLR,,0.00,WeatherDisplay:10.37,2013-07-26 20:58:00,
2013-07-26 17:03:00,83.4,62.8,29.41,North,0,0.0,0.0,50,0.00,CLR,,0.00,WeatherDisplay:10.37,2013-07-26 21:03:00,
2013-07-26 17:08:00,83.4,62.8,29.41,North,0,0.0,0.0,50,0.00,CLR,,0.00,WeatherDisplay:10.37,2013-07-26 21:08:00,
2013-07-26 17:13:00,83.4,62.8,29.41,North,0,0.0,0.0,50,0.00,CLR,,0.00,WeatherDisplay:10.37,2013-07-26 21:13:00,
2013-07-26 17:18:00,83.4,62.8,29.41,North,0,0.0,0.0,50,0.00,CLR,,0.00,WeatherDisplay:10.37,2013-07-26 21:18:00,
2013-07-26 17:23:00,83.4,62.8,29.41,North,0,0.0,0.0,50,0.00,CLR,,0.00,WeatherDisplay:10.37,2013-07-26 21:23:00,
2013-07-26 17:28:00,83.4,62.8,29.41,North,0,0.0,0.0,50,0.00,CLR,,0.00,WeatherDisplay:10.37,2013-07-26 21:28:00,
2013-07-26 17:33:00,83.4,62.8,29.41,North,0,0.0,0.0,50,0.00,CLR,,0.00,WeatherDisplay:10.37,2013-07-26 21:33:00,
2013-07-26 17:38:00,83.4,62.8,29.40,North,0,0.0,0.0,50,0.00,CLR,,0.00,WeatherDisplay:10.37,2013-07-26 21:38:00,
2013-07-26 17:44:00,83.4,62.8,29.40,North,0,0.0,0.0,50,0.00,CLR,,0.00,WeatherDisplay:10.37,2013-07-26 21:44:00,
2013-07-26 17:49:00,83.4,62.8,29.40,North,0,0.0,0.0,50,0.00,CLR,,0.00,WeatherDisplay:10.37,2013-07-26 21:49:00,
2013-07-26 17:54:00,83.4,62.8,29.40,North,0,0.0,0.0,50,0.00,CLR,,0.00,WeatherDisplay:10.37,2013-07-26 21:54:00,
2013-07-26 17:59:00,83.4,62.8,29.40,North,0,0.0,0.0,50,0.00,CLR,,0.00,WeatherDisplay:10.37,2013-07-26 21:59:00,
2013-07-26 18:04:00,83.4,62.8,29.40,North,0,0.0,0.0,50,0.00,CLR,,0.00,WeatherDisplay:10.37,2013-07-26 22:04:00,
2013-07-26 18:09:00,83.4,62.8,29.39,North,0,0.0,0.0,50,0.00,CLR,,0.00,WeatherDisplay:10.37,2013-07-26 22:09:00,
2013-07-26 18:14:00,83.4,62.8,29.39,North,0,0.0,0.0,50,0.00,CLR,,0.00,WeatherDisplay:10.37,2013-07-26 22:14:00,
2013-07-26 18:19:00,83.4,62.8,29.39,North,0,0.0,0.0,50,0.00,CLR,,0.00,WeatherDisplay:10.37,2013-07-26 22:19:00,
2013-07-26 18:24:00,83.4,62.8,29.39,North,0,0.0,0.0,50,0.00,CLR,,0.00,WeatherDisplay:10.37,2013-07-26 22:24:00,
2013-07-26 18:29:00,83.4,62.8,29.39,North,0,0.0,0.0,50,0.00,CLR,,0.00,WeatherDisplay:10.37,2013-07-26 22:29:00,
2013-07-26 18:34:00,83.4,62.8,29.39,North,0,0.0,0.0,50,0.00,CLR,,0.00,WeatherDisplay:10.37,2013-07-26 22:34:00,
2013-07-26 18:39:00,83.4,62.8,29.39,North,0,0.0,0.0,50,0.00,CLR,,0.00,WeatherDisplay:10.37,2013-07-26 22:39:00,
2013-07-26 18:44:00,83.4,62.8,29.39,North,0,0.0,0.0,50,0.00,CLR,,0.00,WeatherDisplay:10.37,2013-07-26 22:44:00,
2013-07-26 18:49:00,83.4,62.8,29.39,North,0,0.0,0.0,50,0.00,CLR,,0.00,WeatherDisplay:10.37,2013-07-26 22:49:00,
2013-07-26 18:54:00,83.4,62.8,29.39,North,0,0.0,0.0,50,0.00,CLR,,0.00,WeatherDisplay:10.37,2013-07-26 22:54:00,
2013-07-26 18:59:00,83.4,62.8,29.39,North,0,0.0,0.0,50,0.00,CLR,,0.00,WeatherDisplay:10.37,2013-07-26 22:59:00,
2013-07-26 19:04:00,83.4,62.8,29.39,North,0,0.0,0.0,50,0.00,CLR,,0.00,WeatherDisplay:10.37,2013-07-26 23:04:00,
2013-07-26 19:09:00,83.4,62.8,29.40,North,0,0.0,0.0,50,0.00,CLR,,0.00,WeatherDisplay:10.37,2013-07-26 23:09:00,
2013-07-26 19:14:00,83.4,62.8,29.40,North,0,0.0,0.0,50,0.00,CLR,,0.00,WeatherDisplay:10.37,2013-07-26 23:14:00,
2013-07-26 19:19:00,83.4,62.8,29.40,North,0,0.0,0.0,50,0.00,CLR,,0.00,WeatherDisplay:10.37,2013-07-26 23:19:00,
2013-07-26 19:24:00,83.4,62.8,29.40,North,0,0.0,0.0,50,0.00,CLR,,0.00,WeatherDisplay:10.37,2013-07-26 23:24:00,
2013-07-26 19:29:00,83.4,62.8,29.40,North,0,0.0,0.0,50,0.00,CLR,,0.00,WeatherDisplay:10.37,2013-07-26 23:29:00,
2013-07-26 19:34:00,83.4,62.8,29.40,North,0,0.0,0.0,50,0.00,CLR,,0.00,WeatherDisplay:10.37,2013-07-26 23:34:00,
2013-07-26 19:39:00,83.4,62.8,29.40,North,0,0.0,0.0,50,0.00,CLR,,0.00,WeatherDisplay:10.37,2013-07-26 23:39:00,
2013-07-26 19:44:00,83.4,62.8,29.40,North,0,0.0,0.0,50,0.00,CLR,,0.00,WeatherDisplay:10.37,2013-07-26 23:44:00,
2013-07-26 19:49:00,83.4,62.8,29.40,North,0,0.0,0.0,50,0.00,CLR,,0.00,WeatherDisplay:10.37,2013-07-26 23:49:00,
2013-07-26 19:54:00,83.4,62.8,29.40,North,0,0.0,0.0,50,0.00,CLR,,0.00,WeatherDisplay:10.37,2013-07-26 23:54:00,
2013-07-26 19:59:00,83.4,62.8,29.40,North,0,0.0,0.0,50,0.00,CLR,,0.00,WeatherDisplay:10.37,2013-07-26 23:59:00,
2013-07-26 20:04:00,83.4,62.8,29.40,North,0,0.0,0.0,50,0.00,CLR,,0.00,WeatherDisplay:10.37,2013-07-27 00:04:00,
2013-07-26 20:09:00,83.4,62.8,29.40,North,0,0.0,0.0,50,0.00,CLR,,0.00,WeatherDisplay:10.37,2013-07-27 00:09:00,
2013-07-26 20:14:00,83.4,62.8,29.40,North,0,0.0,0.0,50,0.00,CLR,,0.00,WeatherDisplay:10.37,2013-07-27 00:14:00,
2013-07-26 20:19:00,83.4,62.8,29.40,North,0,0.0,0.0,50,0.00,CLR,,0.00,WeatherDisplay:10.37,2013-07-27 00:19:00,
2013-07-26 20:24:00,83.4,62.8,29.40,North,0,0.0,0.0,50,0.00,CLR,,0.00,WeatherDisplay:10.37,2013-07-27 00:24:00,
2013-07-26 20:29:00,83.4,62.8,29.40,North,0,0.0,0.0,50,0.00,CLR,,0.00,WeatherDisplay:10.37,2013-07-27 00:29:00,
2013-07-26 20:34:00,83.4,62.8,29.40,North,0,0.0,0.0,50,0.00,CLR,,0.00,WeatherDisplay:10.37,2013-07-27 00:34:00,
2013-07-26 20:39:00,83.4,62.8,29.40,North,0,0.0,0.0,50,0.00,CLR,,0.00,WeatherDisplay:10.37,2013-07-27 00:39:00,
2013-07-26 20:44:00,83.4,62.8,29.40,North,0,0.0,0.0,50,0.00,CLR,,0.00,WeatherDisplay:10.37,2013-07-27 00:44:00,
2013-07-26 20:49:00,83.4,62.8,29.40,North,0,0.0,0.0,50,0.00,CLR,,0.00,WeatherDisplay:10.37,2013-07-27 00:49:00,
2013-07-26 20:54:00,83.4,62.8,29.40,North,0,0.0,0.0,50,0.00,CLR,,0.00,WeatherDisplay:10.37,2013-07-27 00:54:00,
2013-07-26 20:59:00,83.4,62.8,29.40,North,0,0.0,0.0,50,0.00,CLR,,0.00,WeatherDisplay:10.37,2013-07-27 00:59:00,
2013-07-26 21:04:00,83.4,62.8,29.40,North,0,0.0,0.0,50,0.00,CLR,,0.00,WeatherDisplay:10.37,2013-07-27 01:04:00,
2013-07-26 21:09:00,83.4,62.8,29.40,North,0,0.0,0.0,50,0.00,CLR,,0.00,WeatherDisplay:10.37,2013-07-27 01:09:00,
2013-07-26 21:14:00,83.4,62.8,29.40,North,0,0.0,0.0,50,0.00,CLR,,0.00,WeatherDisplay:10.37,2013-07-27 01:14:00,
2013-07-26 21:19:00,83.4,62.8,29.40,North,0,0.0,0.0,50,0.00,CLR,,0.00,WeatherDisplay:10.37,2013-07-27 01:19:00,
2013-07-26 21:24:00,83.4,62.8,29.40,North,0,0.0,0.0,50,0.00,CLR,,0.00,WeatherDisplay:10.37,2013-07-27 01:24:00,
2013-07-26 21:29:00,83.4,62.8,29.40,North,0,0.0,0.0,50,0.00,CLR,,0.00,WeatherDisplay:10.37,2013-07-27 01:29:00,
2013-07-26 21:34:00,83.4,62.8,29.40,North,0,0.0,0.0,50,0.00,CLR,,0.00,WeatherDisplay:10.37,2013-07-27 01:34:00,
2013-07-26 21:39:00,83.4,62.8,29.41,North,0,0.0,0.0,50,0.00,CLR,,0.00,WeatherDisplay:10.37,2013-07-27 01:39:00,
2013-07-26 21:44:00,83.4,62.8,29.41,North,0,0.0,0.0,50,0.00,CLR,,0.00,WeatherDisplay:10.37,2013-07-27 01:44:00,
2013-07-26 21:49:00,83.4,62.8,29.41,North,0,0.0,0.0,50,0.00,CLR,,0.00,WeatherDisplay:10.37,2013-07-27 01:49:00,
2013-07-26 21:54:00,83.4,62.8,29.41,North,0,0.0,0.0,50,0.00,CLR,,0.00,WeatherDisplay:10.37,2013-07-27 01:54:00,
2013-07-26 21:59:00,83.4,62.8,29.41,North,0,0.0,0.0,50,0.00,CLR,,0.00,WeatherDisplay:10.37,2013-07-27 01:59:00,
2013-07-26 22:04:00,83.4,62.8,29.41,North,0,0.0,0.0,50,0.00,CLR,,0.00,WeatherDisplay:10.37,2013-07-27 02:04:00,
2013-07-26 22:09:00,83.4,62.8,29.41,North,0,0.0,0.0,50,0.00,CLR,,0.00,WeatherDisplay:10.37,2013-07-27 02:09:00,
2013-07-26 22:14:00,83.4,62.8,29.41,North,0,0.0,0.0,50,0.00,CLR,,0.00,WeatherDisplay:10.37,2013-07-27 02:14:00,
2013-07-26 22:19:00,83.4,62.8,29.41,North,0,0.0,0.0,50,0.00,CLR,,0.00,WeatherDisplay:10.37,2013-07-27 02:19:00,
2013-07-26 22:24:00,83.4,62.8,29.42,North,0,0.0,0.0,50,0.00,CLR,,0.00,WeatherDisplay:10.37,2013-07-27 02:24:00,
2013-07-26 22:29:00,83.4,62.8,29.42,North,0,0.0,0.0,50,0.00,CLR,,0.00,WeatherDisplay:10.37,2013-07-27 02:29:00,
2013-07-26 22:34:00,83.4,62.8,29.42,North,0,0.0,0.0,50,0.00,CLR,,0.00,WeatherDisplay:10.37,2013-07-27 02:34:00,
2013-07-26 22:39:00,83.4,62.8,29.42,North,0,0.0,0.0,50,0.00,CLR,,0.00,WeatherDisplay:10.37,2013-07-27 02:39:00,
2013-07-26 22:44:00,83.4,62.8,29.42,North,0,0.0,0.0,50,0.00,CLR,,0.00,WeatherDisplay:10.37,2013-07-27 02:44:00,
2013-07-26 22:49:00,83.4,62.8,29.42,North,0,0.0,0.0,50,0.00,CLR,,0.00,WeatherDisplay:10.37,2013-07-27 02:49:00,
2013-07-26 22:54:00,83.4,62.8,29.41,East,85,0.0,0.0,50,0.00,CLR,,0.00,WeatherDisplay:10.37,2013-07-27 02:54:00,
2013-07-26 22:59:00,70.4,50.9,29.41,East,85,0.0,0.0,50,0.00,CLR,,0.00,WeatherDisplay:10.37,2013-07-27 02:59:00,
2013-07-26 23:04:00,70.4,50.9,29.41,East,85,0.0,0.0,50,0.00,CLR,,0.00,WeatherDisplay:10.37,2013-07-27 03:04:00,
2013-07-26 23:09:00,70.4,50.9,29.41,East,85,0.0,0.0,50,0.00,CLR,,0.00,WeatherDisplay:10.37,2013-07-27 03:09:00,
2013-07-26 23:14:00,70.4,50.9,29.41,North,0,0.0,0.0,50,0.00,CLR,,0.00,WeatherDisplay:10.37,2013-07-27 03:14:00,
2013-07-26 23:19:00,70.4,50.9,29.41,North,0,0.0,0.0,50,0.00,CLR,,0.00,WeatherDisplay:10.37,2013-07-27 03:19:00,
2013-07-26 23:24:00,70.4,50.9,29.42,North,0,0.0,0.0,50,0.00,CLR,,0.00,WeatherDisplay:10.37,2013-07-27 03:24:00,
2013-07-26 23:29:00,70.4,50.9,29.42,North,0,0.0,0.0,50,0.00,CLR,,0.00,WeatherDisplay:10.37,2013-07-27 03:29:00,
2013-07-26 23:34:00,70.4,50.9,29.42,North,0,0.0,0.0,50,0.00,CLR,,0.00,WeatherDisplay:10.37,2013-07-27 03:34:00,
2013-07-26 23:39:00,70.4,50.9,29.42,North,0,0.0,0.0,50,0.00,CLR,,0.00,WeatherDisplay:10.37,2013-07-27 03:39:00,
2013-07-26 23:44:00,69.6,50.1,29.42,East,85,0.0,0.0,50,0.00,CLR,,0.00,WeatherDisplay:10.37,2013-07-27 03:44:00,
2013-07-26 23:49:00,69.6,65.6,29.42,East,85,0.0,0.0,87,0.00,CLR,,0.00,WeatherDisplay:10.37,2013-07-27 03:49:00,
2013-07-26 23:54:00,69.4,65.4,29.42,East,85,0.0,0.0,87,0.00,CLR,,0.00,WeatherDisplay:10.37,2013-07-27 03:54:00,
2013-07-26 23:59:00,69.4,65.4,29.42,East,85,0.0,0.0,87,0.00,CLR,,0.00,WeatherDisplay:10.37,2013-07-27 03:59:00,